Location: *
(33.8649°S, 62.1526°E)
Time: 04:28:34
(UTC+00:00)

Lacrosse 5 rocket - Pass Details

Date: 17 January 2021
Orbit: 465 x 630 km, 57.0° (Epoch: 27 February)

Event Time Altitude Azimuth Distance (km) Brightness Sun altitude
Rises 15:57:49 0° 217° (SW) 2,855 6.5 -10.4°
Reaches altitude 10° 16:00:05 10° 215° (SW) 1,969 5.4 -10.8°
Maximum altitude 16:04:35 71° 130° (SE) 663 1.6 -11.6°
Enters shadow 16:08:01 18° 48° (NE) 1,564 3.0 -12.2°
